Vertical_Velocity
-4 0 -4 -6 2 10 4 0 2 3 3 -8 1 -8 -2 -0 2 -4 -5 2 -1 -6 -0 3 -2 -2 5 1 3 2 -3 3 7 -0 -0 2 0 -0 1 -1 6 5 -11 -10
5 -12 -0 4 6 3 7 2 -4 -2 -3 1 6 -21 -6 -3 -5 0 -4 -0 -5 -5 -2 -3 0 -2 4 -2 -6 -9 5 -5 8 4 -1 3 -3 1 2 -1 4 -5 0 -7
-5 6 -0 7 3 3 2 -0 0 1 -3 -6 7 -23 -15 -4 -1 -1 1 -1 -8 -1 -8 -9 -1 0 1 -5 2 -5 8 4 4 5 -1 5 -0 -1 -1 0 6 -3 0 -4
-5 12 -0 -0 -2 4 -0 7 -0 2 8 -3 3 -21 -18 -7 -2 -5 -5 -7 0 -2 3 -3 -1 -2 3 -2 -8 -1 6 3 3 3 -0 4 3 -3 3 4 6 -5 -5 15
-18 0 4 -3 -4 7 -7 1 3 6 2 7 -6 2 20 -2 -1 -1 -5 -8 -5 -2 -3 -5 -4 6 -4 4 2 -2 -5 -0 -2 6 3 4 2 -2 2 1 1 3 -0 -6
6 8 4 6 0 -2 8 3 3 3 3 4 -7 -1 -28 0 -2 -12 -12 -6 1 -2 -3 -1 -1 1 3 1 2 3 -7 -6 -3 3 5 6 3 -2 -2 3 -1 -0 0 -1
5 0 6 7 4 5 10 5 -1 -1 3 -5 0 7 -29 -2 2 2 -2 -3 -2 -0 -5 -2 -5 -3 4 2 -3 4 2 -7 -5 0 4 8 0 -0 -1 2 3 1 5 -0
4 -2 9 2 -4 -4 1 3 -9 -4 -2 -3 4 -3 -5 2 2 4 6 1 1 0 -1 1 3 -4 1 -9 5 -6 7 -6 -4 3 3 7 0 -1 1 1 3 2 -2 4
5 1 5 9 4 5 -2 4 3 3 1 0 -4 -3 -2 5 5 -4 -3 -4 -4 -0 -5 -7 -0 -2 -3 -3 6 -4 3 7 -6 4 3 6 1 1 -1 -1 0 -0 -1 -3
10 -0 -3 9 2 4 1 2 1 1 0 -0 -0 -1 2 -5 -3 1 -4 -4 -3 1 3 -2 -11 1 -8 -3 4 0 2 3 16 6 4 4 1 -0 -2 -1 -1 2 1 2
-2 16 4 5 7 -0 1 -0 -0 -2 -3 -0 -0 -2 -1 4 -1 -7 -6 -6 -11 -9 -7 -2 -1 -3 -9 -2 6 -0 -4 -3 4 8 7 5 1 1 -3 -1 0 -0 -1 -2
11 4 -6 4 -3 5 3 0 -0 -1 -0 -0 -2 -15 -7 1 -1 -4 -5 -8 -7 -8 -1 3 2 -1 -5 3 6 4 2 -7 4 -1 7 1 2 4 -2 -2 1 -1 3 2
-10 -1 -4 4 7 5 -1 2 -3 -1 -2 -2 -2 -15 4 -5 3 6 -7 3 -1 -6 -6 4 -1 -5 -1 3 5 3 7 -7 3 1 5 -1 -1 4 4 2 -2 -4 -3 -3
5 -1 7 1 3 7 1 2 -1 -5 -2 -2 -12 -21 -15 -7 -9 -8 -3 8 -4 -2 -6 3 -6 10 3 7 6 16 8 -3 3 -0 5 -0 -2 -1 2 4 3 -1 -3 -2
7 -16 -2 5 -4 1 -10 0 10 7 5 -7 -27 2 -23 -9 -3 -4 -4 2 -3 6 -14 -12 3 5 -10 -2 3 8 4 1 6 4 4 -0 -1 -1 1 1 4 2 2 1
4 -5 3 -12 6 -3 -7 -3 -9 2 -5 -3 -2 -22 7 -9 -8 -8 -1 1 -6 -1 -5 -17 -15 19 13 2 0 6 2 9 3 4 8 3 1 0 -0 0 4 3 1 1
-1 1 1 -12 -2 0 -5 -17 6 2 -7 -2 -4 -24 8 -13 -2 4 -5 -5 -3 -7 -13 -3 -17 14 5 -5 2 5 -14 7 2 3 2 3 5 2 2 2 -2 -0 4 2
-3 6 8 -6 6 4 -3 6 -4 -7 -3 8 -6 -3 -3 -0 1 -0 -3 0 -2 -4 -16 -7 6 4 -11 13 -3 20 13 3 0 1 2 2 3 3 -2 -1 1 -1 1 3
7 11 -1 -1 0 -10 -16 -17 -8 2 -9 5 -3 1 -2 3 4 -0 -2 1 0 1 -13 -0 -10 -5 -5 -15 -17 32 -18 14 3 -1 5 10 2 1 1 1 2 1 1 3
4 7 8 6 1 -2 -3 -9 9 7 -23 2 3 6 4 -2 1 1 5 5 1 2 -4 -3 -13 -5 2 11 17 -13 25 8 9 -4 5 -1 -1 3 8 2 1 3 4 4
4 6 -9 3 1 -8 -1 0 12 4 -14 -16 10 7 10 8 8 5 3 2 3 5 1 -2 2 -1 1 12 12 2 0 12 -17 -6 -16 -4 2 6 3 1 2 0 1 2
10 5 3 6 0 -11 -0 7 9 -3 -7 9 6 11 5 3 -1 -1 -1 -1 4 2 2 4 2 3 4 6 5 13 -17 2 31 15 10 -12 -16 -1 1 1 -1 0 1 0
-6 25 8 -4 -0 1 1 -1 3 4 2 0 0 1 8 7 2 -0 -4 -5 0 -1 2 0 2 3 2 -0 5 5 -4 8 2 -10 -7 7 4 7 -1 -3 -1 1 -3 0
-0 6 15 -2 -3 -4 -0 6 2 -14 10 -4 -1 3 1 1 2 2 0 -4 -4 -2 -1 -2 -6 -5 -2 -2 -1 3 -5 1 8 5 2 8 23 -1 -9 -16 -8 13 10 -27
8 -3 7 7 6 1 3 -2 3 -4 3 1 -1 3 -2 0 1 3 2 1 -2 -9 -6 1 -0 -1 0 -0 -1 0 4 4 1 1 3 5 5 9 -3 -1 1 2 4 3
1 -1 6 6 7 22 13 21 14 4 2 3 -1 0 -1 -2 -1 -3 2 3 -1 -1 -0 -8 -8 -3 -3 1 1 2 2 4 1 4 1 9 4 3 -2 4 -8 -1 6 5
Height
3031 3032 3025 3031 3036 3040 3041 3039 3039 3040 3045 3045 3042 3033 3037 3040 3040 3041 3043 3044 3042 3040 3039 3036 3035 3039 3040 3043 3047 3048 3049 3049 3053 3054 3053 3050 3046 3044 3043 3043 3042 3036 3034 3038
3026 3017 3025 3029 3032 3033 3035 3034 3032 3036 3040 3038 3036 3026 3030 3033 3033 3036 3038 3037 3035 3033 3029 3028 3028 3032 3034 3036 3040 3042 3044 3044 3047 3048 3047 3044 3042 3040 3039 3039 3037 3031 3030 3034
3017 3018 3021 3024 3025 3027 3027 3028 3029 3033 3035 3034 3030 3017 3022 3025 3028 3031 3032 3031 3030 3027 3022 3021 3021 3026 3028 3032 3034 3036 3037 3039 3041 3043 3041 3040 3038 3036 3036 3036 3036 3033 3033 3037
3012 3012 3015 3018 3017 3021 3021 3024 3027 3028 3031 3030 3030 3015 3015 3021 3023 3026 3027 3025 3024 3020 3017 3016 3014 3016 3021 3024 3027 3029 3030 3034 3036 3037 3036 3036 3034 3034 3034 3035 3036 3035 3036 3038
3002 3005 3008 3009 3010 3014 3014 3020 3022 3024 3025 3025 3024 3026 3009 3014 3019 3021 3021 3021 3017 3014 3012 3011 3009 3008 3011 3017 3021 3022 3024 3027 3030 3031 3032 3032 3031 3031 3031 3032 3034 3036 3038 3038
2999 3002 3004 3004 3006 3008 3013 3015 3018 3018 3020 3017 3017 3023 2995 3011 3014 3016 3017 3016 3013 3010 3007 3005 3004 3004 3009 3011 3015 3017 3019 3021 3025 3027 3027 3028 3027 3026 3027 3029 3030 3032 3035 3038
2995 2994 2998 3001 3003 3006 3008 3011 3014 3015 3015 3011 3012 3017 3004 3010 3010 3011 3010 3010 3008 3004 3000 3000 2999 2999 3002 3005 3009 3010 3013 3016 3020 3022 3023 3024 3023 3022 3022 3025 3028 3031 3033 3036
2992 2992 2991 2993 2996 3000 3001 3004 3006 3007 3009 3007 3009 3005 3006 3007 3007 3006 3004 3003 3001 2999 2997 2996 2994 2994 2996 2999 3002 3003 3006 3011 3014 3017 3019 3020 3019 3018 3018 3020 3023 3027 3030 3032
2991 2991 2991 2990 2992 2996 2997 2999 3001 3001 3002 3005 3003 3001 3004 3004 3002 3002 2999 2997 2996 2995 2993 2988 2986 2987 2989 2993 2994 2994 2998 3004 3010 3013 3014 3015 3015 3014 3015 3016 3019 3021 3023 3027
2993 2991 2989 2990 2991 2993 2994 2995 2997 2998 3001 3001 2997 2998 3000 2999 2999 2997 2995 2993 2992 2990 2987 2984 2981 2979 2982 2983 2985 2986 2990 2998 3005 3008 3010 3011 3011 3011 3012 3012 3015 3017 3019 3021
2993 2992 2989 2988 2988 2991 2992 2991 2993 2996 2998 2999 3000 2998 2996 2995 2994 2993 2992 2990 2988 2985 2982 2976 2974 2973 2975 2976 2978 2981 2986 2993 2999 3003 3005 3006 3007 3007 3009 3010 3013 3011 3013 3016
2994 2992 2991 2990 2988 2988 2987 2988 2990 2992 2998 2998 2999 2995 2994 2994 2993 2992 2989 2987 2983 2980 2978 2973 2968 2967 2967 2967 2970 2975 2981 2989 2995 2997 3000 3001 3003 3004 3005 3007 3009 3009 3010 3012
2993 2993 2992 2990 2990 2989 2987 2988 2990 2992 2993 2994 2997 2989 2992 2992 2991 2990 2986 2983 2978 2973 2970 2969 2964 2962 2960 2961 2964 2970 2977 2986 2991 2994 2996 2997 3000 3002 3003 3004 3006 3007 3006 3009
2993 2993 2992 2991 2992 2988 2986 2989 2990 2991 2991 2991 2990 2987 2985 2985 2986 2985 2983 2978 2974 2970 2968 2963 2959 2960 2958 2957 2959 2965 2972 2982 2987 2990 2992 2995 2997 2999 3001 3003 3004 3005 3006 3007
2989 2987 2988 2986 2987 2984 2985 2987 2986 2984 2981 2985 2983 2982 2981 2980 2980 2979 2978 2975 2970 2969 2964 2958 2953 2950 2951 2953 2955 2960 2969 2977 2982 2986 2989 2992 2994 2996 2999 3000 3003 3005 3006 3006
2985 2985 2983 2980 2982 2982 2980 2979 2980 2977 2974 2977 2976 2972 2977 2974 2974 2973 2973 2970 2967 2966 2961 2955 2951 2946 2947 2949 2952 2957 2965 2971 2976 2980 2985 2989 2992 2994 2997 2999 3001 3004 3006 3007
2982 2981 2981 2979 2980 2980 2976 2970 2970 2969 2970 2971 2969 2968 2968 2967 2967 2968 2967 2965 2963 2961 2960 2954 2950 2943 2944 2946 2948 2954 2960 2964 2970 2975 2980 2985 2988 2992 2995 2997 2999 3001 3004 3007
2976 2978 2978 2975 2977 2975 2964 2963 2964 2965 2963 2964 2962 2960 2962 2961 2961 2961 2962 2962 2961 2958 2958 2953 2948 2946 2944 2943 2943 2942 2953 2960 2964 2970 2975 2979 2983 2988 2992 2994 2997 3000 3003 3005
2970 2972 2973 2971 2970 2962 2958 2961 2961 2960 2956 2959 2955 2953 2952 2953 2955 2956 2957 2958 2957 2956 2956 2952 2947 2946 2946 2943 2942 2938 2946 2952 2957 2963 2971 2976 2980 2984 2988 2991 2994 2997 3000 3003
2965 2965 2967 2966 2965 2962 2956 2954 2955 2956 2951 2950 2946 2947 2947 2949 2950 2952 2953 2953 2952 2952 2952 2951 2948 2947 2947 2945 2942 2939 2934 2946 2951 2957 2964 2970 2976 2980 2984 2987 2989 2992 2996 2999
2961 2959 2956 2955 2956 2953 2951 2954 2955 2956 2954 2943 2941 2945 2946 2948 2949 2948 2948 2948 2948 2948 2947 2946 2946 2943 2943 2941 2940 2938 2936 2941 2945 2953 2960 2965 2970 2976 2978 2981 2984 2987 2990 2993
2959 2957 2953 2952 2954 2955 2950 2951 2953 2951 2948 2944 2941 2942 2945 2946 2946 2945 2943 2943 2943 2942 2941 2940 2939 2936 2935 2933 2936 2936 2936 2938 2941 2950 2955 2960 2966 2969 2972 2975 2978 2981 2984 2988
2957 2955 2955 2953 2951 2949 2950 2950 2949 2947 2945 2945 2945 2945 2946 2945 2944 2942 2941 2939 2938 2937 2936 2934 2932 2931 2931 2931 2933 2935 2938 2940 2942 2945 2947 2953 2957 2960 2965 2968 2973 2975 2979 2983
2955 2952 2951 2950 2949 2947 2948 2948 2946 2944 2942 2945 2945 2944 2943 2943 2942 2939 2937 2936 2935 2934 2932 2929 2927 2926 2926 2927 2928 2931 2935 2938 2940 2942 2943 2948 2951 2953 2957 2962 2965 2968 2973 2978
2960 2955 2951 2949 2946 2945 2944 2944 2944 2945 2944 2944 2944 2944 2943 2941 2939 2937 2935 2933 2932 2931 2928 2924 2921 2920 2921 2922 2924 2927 2930 2932 2936 2940 2943 2946 2944 2950 2954 2956 2961 2966 2969 2971
2960 2956 2952 2949 2946 2944 2944 2943 2943 2943 2943 2942 2943 2944 2942 2941 2938 2935 2933 2931 2929 2928 2926 2923 2919 2918 2919 2918 2919 2921 2923 2926 2930 2934 2939 2943 2945 2948 2951 2954 2957 2958 2960 2964